View from above orbital plane
|
View from above satellite
|
Ground track
|
The orbit data is extracted from the following two-line orbital elements,
1 00115U 60002D 21108.66847330 .00000200 00000-0 50641-4 0 9996
2 00115 48.1662 246.4148 0034377 155.1667 205.0909 14.83745403237130
Epoch (UTC): | 18 April 2021 16:02:36 |
Eccentricity: | 0.0034377 |
inclination: | 48.1662° |
perigee height: | 593 km |
apogee height: | 641 km |
right ascension of ascending node: | 246.4148° |
argument of perigee: | 155.1667° |
revolutions per day: | 14.83745403 |
mean anomaly at epoch: | 205.0909° |
orbit number at epoch: | 23713 |
The dashed part of the orbit path shows where the satellite is in the earth's shadow,
|
|